User: anonymous   Login
Location: Unspecified
(0.0000°N, 0.0000°E)
Time: 09:00:33
(UTC+02:00)
Language:

PSLV R/B - Orbit

View from above orbital plane
View from above orbital plane
View from above satellite
View from above satellite

Ground track
Ground track

The orbit data is extracted from the following two-line orbital elements,

1 29713U 07001E   17174.89955970 +.00000192 +00000-0 +28533-4 0  9999
2 29713 097.7644 147.2455 0026718 074.2390 286.1769 14.85090582565061
Epoch (UTC): 23 June 2017 21:35:21
Eccentricity: 0.0026718
inclination: 97.7644°
perigee height: 594 km
apogee height: 632 km
right ascension of ascending node: 147.2455°
argument of perigee: 74.2390°
revolutions per day: 14.85090582
mean anomaly at epoch: 286.1769°
orbit number at epoch: 56506

The dashed part of the orbit path shows where the satellite is in the earth's shadow,  

DLR